OCN134 EDDF-HKMO

Flight info

Callsign OCN134
Flight time 8h 19m
Altitude 37000
Route CINDY2D CINDY Z74 LAMPU DCT NOMBO Y161 MAH DCT VAVOR DCT RADIZ DCT GLOMY DCT PETAK DCT DIMIS UL604 SALUN N705 BOPIX N710 TAKRI P751 LXR M999 JDW G650 KONET M308 GETOL T129 ALEMU UN301 IBNOK IBNOK3A
Aircraft A333/H-SDE3GHIJ2J3J5M1RVWXY/LB2D1

Departure

Time 2026-04-14 21:57
Airport Frankfurt Main Airport (EDDF)

Arrival

Time 2026-04-15 06:16
Airport Moi International Airport (HKMO)
Time Latitude Longitude Altitude Speed Heading
2026-04-14 21:39 50.04910 8.58064 365 ft 0 kts 339°
2026-04-14 21:48 50.04907 8.58066 363 ft 3 kts 339°
2026-04-14 21:48 50.04890 8.58076 369 ft 3 kts 339°
2026-04-14 21:48 50.04872 8.58086 367 ft 3 kts 339°
2026-04-14 21:48 50.04855 8.58096 366 ft 3 kts 339°
2026-04-14 21:49 50.04839 8.58112 369 ft 3 kts 294°
2026-04-14 21:49 50.04834 8.58130 368 ft 0 kts 263°
2026-04-14 21:50 50.04834 8.58125 369 ft 5 kts 263°
2026-04-14 21:50 50.04822 8.58048 366 ft 0 kts 251°
2026-04-14 21:52 50.04819 8.58033 366 ft 5 kts 251°
2026-04-14 21:52 50.04784 8.57956 365 ft 14 kts 211°
2026-04-14 21:52 50.04693 8.57832 368 ft 21 kts 245°
2026-04-14 21:53 50.04628 8.57566 367 ft 32 kts 249°
2026-04-14 21:53 50.04545 8.57223 368 ft 36 kts 250°
2026-04-14 21:53 50.04447 8.56810 368 ft 46 kts 249°
2026-04-14 21:53 50.04334 8.56344 361 ft 45 kts 249°
2026-04-14 21:54 50.04228 8.55901 362 ft 43 kts 249°
2026-04-14 21:54 50.04120 8.55447 364 ft 46 kts 250°
2026-04-14 21:54 50.04015 8.55003 364 ft 42 kts 250°
2026-04-14 21:54 50.03908 8.54558 360 ft 45 kts 250°
2026-04-14 21:55 50.03780 8.54143 359 ft 42 kts 248°
2026-04-14 21:55 50.03683 8.53734 355 ft 39 kts 250°
2026-04-14 21:55 50.03587 8.53350 351 ft 37 kts 249°
2026-04-14 21:55 50.03498 8.52982 335 ft 35 kts 249°
2026-04-14 21:56 50.03402 8.52645 334 ft 31 kts 226°
2026-04-14 21:56 50.03228 8.52594 336 ft 27 kts 179°
2026-04-14 21:56 50.02888 8.52600 334 ft 77 kts 180°
2026-04-14 21:56 50.02174 8.52607 334 ft 130 kts 180°
2026-04-14 21:57 50.01085 8.52619 352 ft 178 kts 179°
2026-04-14 21:57 49.99759 8.52637 621 ft 207 kts 179°
2026-04-14 21:57 49.98231 8.52654 1072 ft 230 kts 179°
2026-04-14 21:57 49.96615 8.52875 1894 ft 231 kts 156°
2026-04-14 21:58 49.95381 8.54333 2664 ft 227 kts 122°
2026-04-14 21:58 49.94664 8.56580 3016 ft 239 kts 111°
2026-04-14 21:58 49.94086 8.59034 3510 ft 246 kts 103°
2026-04-14 21:58 49.93872 8.61691 4009 ft 251 kts 92°
2026-04-14 21:59 49.93810 8.64376 4550 ft 256 kts 91°
2026-04-14 21:59 49.93723 8.67116 5129 ft 259 kts 97°
2026-04-14 21:59 49.93132 8.69749 5699 ft 263 kts 124°
2026-04-14 21:59 49.91823 8.71757 6294 ft 267 kts 141°
2026-04-14 22:00 49.90308 8.73462 6887 ft 270 kts 144°
2026-04-14 22:00 49.88816 8.75257 7470 ft 273 kts 134°
2026-04-14 22:00 49.87670 8.77605 8040 ft 276 kts 121°
2026-04-14 22:00 49.86697 8.80202 8600 ft 281 kts 120°
2026-04-14 22:01 49.85745 8.82861 9174 ft 284 kts 119°
2026-04-14 22:01 49.84792 8.85525 9772 ft 287 kts 120°
2026-04-14 22:01 49.83814 8.88244 10319 ft 292 kts 120°
2026-04-14 22:01 49.82801 8.91048 10585 ft 305 kts 120°
2026-04-14 22:02 49.81734 8.93988 10780 ft 321 kts 120°
2026-04-14 22:02 49.80613 8.97073 10980 ft 336 kts 120°
2026-04-14 22:02 49.79438 9.00304 11180 ft 352 kts 119°
2026-04-14 22:02 49.78214 9.03661 11380 ft 366 kts 119°
2026-04-14 22:03 49.76967 9.07103 11703 ft 375 kts 117°
2026-04-14 22:03 49.75966 9.10841 12196 ft 378 kts 107°
2026-04-14 22:03 49.75272 9.14782 12778 ft 381 kts 104°
2026-04-14 22:03 49.74371 9.18633 13316 ft 385 kts 117°
2026-04-14 22:04 49.72923 9.22135 13872 ft 388 kts 125°
2026-04-14 22:04 49.71239 9.25419 14343 ft 392 kts 129°
2026-04-14 22:04 49.69433 9.28585 14802 ft 395 kts 131°
2026-04-14 22:04 49.67566 9.31727 15268 ft 398 kts 132°
2026-04-14 22:05 49.65689 9.34875 15731 ft 401 kts 131°
2026-04-14 22:05 49.63807 9.38065 16194 ft 403 kts 131°
2026-04-14 22:05 49.61781 9.41001 16653 ft 407 kts 142°
2026-04-14 22:05 49.59470 9.43556 17110 ft 410 kts 146°
2026-04-14 22:06 49.57071 9.45941 17558 ft 412 kts 148°
2026-04-14 22:06 49.54614 9.48228 18082 ft 413 kts 149°
2026-04-14 22:06 49.52128 9.50470 18531 ft 415 kts 150°
2026-04-14 22:06 49.49624 9.52705 18870 ft 419 kts 150°
2026-04-14 22:07 49.47093 9.54967 19215 ft 422 kts 149°
2026-04-14 22:07 49.44584 9.57221 19570 ft 425 kts 149°
2026-04-14 22:07 49.42033 9.59523 19913 ft 428 kts 149°
2026-04-14 22:07 49.39460 9.61853 20250 ft 430 kts 149°
2026-04-14 22:08 49.36872 9.64200 20601 ft 433 kts 149°
2026-04-14 22:08 49.34378 9.66790 20912 ft 435 kts 140°
2026-04-14 22:08 49.32077 9.69829 21281 ft 437 kts 137°
2026-04-14 22:08 49.29852 9.73023 21619 ft 439 kts 135°
2026-04-14 22:09 49.27672 9.76304 21953 ft 442 kts 134°
2026-04-14 22:09 49.25501 9.79645 22266 ft 444 kts 134°
2026-04-14 22:09 49.23351 9.82971 22664 ft 445 kts 134°
2026-04-14 22:09 49.21175 9.86329 23061 ft 446 kts 134°
2026-04-14 22:10 49.18974 9.89706 23370 ft 449 kts 134°
2026-04-14 22:10 49.16753 9.93094 23683 ft 452 kts 135°
2026-04-14 22:10 49.14524 9.96480 23971 ft 454 kts 135°
2026-04-14 22:10 49.12272 9.99889 24232 ft 456 kts 135°
2026-04-14 22:11 49.10007 10.03310 24512 ft 459 kts 134°
2026-04-14 22:11 49.07732 10.06740 24776 ft 461 kts 135°
2026-04-14 22:11 49.05443 10.10147 25090 ft 462 kts 136°
2026-04-14 22:11 49.03133 10.13476 25347 ft 464 kts 136°
2026-04-14 22:12 49.00767 10.16822 25598 ft 466 kts 137°
2026-04-14 22:12 48.98383 10.20164 25979 ft 465 kts 137°
2026-04-14 22:12 48.95996 10.23504 26274 ft 467 kts 137°
2026-04-14 22:12 48.93599 10.26865 26509 ft 469 kts 137°
2026-04-14 22:13 48.91201 10.30236 26754 ft 472 kts 137°
2026-04-14 22:13 48.88788 10.33632 27010 ft 474 kts 137°
2026-04-14 22:13 48.86362 10.37047 27244 ft 476 kts 136°
2026-04-14 22:13 48.83933 10.40464 27487 ft 478 kts 136°
2026-04-14 22:14 48.81563 10.43930 27739 ft 480 kts 134°
2026-04-14 22:14 48.79232 10.47568 27987 ft 482 kts 133°
2026-04-14 22:14 48.76929 10.51281 28219 ft 484 kts 132°
2026-04-14 22:14 48.74637 10.55012 28493 ft 485 kts 133°
2026-04-14 22:15 48.72331 10.58758 28752 ft 486 kts 133°
2026-04-14 22:15 48.70015 10.62501 28982 ft 488 kts 134°
2026-04-14 22:15 48.67678 10.66251 29224 ft 489 kts 134°
2026-04-14 22:15 48.65342 10.69977 29575 ft 489 kts 134°
2026-04-14 22:16 48.63029 10.73653 29897 ft 488 kts 134°
2026-04-14 22:16 48.60690 10.77362 30200 ft 488 kts 134°
2026-04-14 22:16 48.58345 10.81076 30476 ft 488 kts 134°
2026-04-14 22:16 48.56017 10.84786 30726 ft 488 kts 133°
2026-04-14 22:17 48.53686 10.88512 30983 ft 487 kts 134°
2026-04-14 22:17 48.51367 10.92220 31341 ft 484 kts 133°
2026-04-14 22:17 48.49054 10.95911 31632 ft 483 kts 133°
2026-04-14 22:17 48.46735 10.99568 31844 ft 484 kts 134°
2026-04-14 22:18 48.44427 11.03177 32058 ft 484 kts 134°
2026-04-14 22:18 48.42084 11.06821 32285 ft 484 kts 133°
2026-04-14 22:18 48.39744 11.10453 32528 ft 484 kts 133°
2026-04-14 22:18 48.37395 11.14094 32740 ft 484 kts 133°
2026-04-14 22:19 48.35046 11.17733 32961 ft 484 kts 133°
2026-04-14 22:19 48.30356 11.24990 33458 ft 482 kts 133°
2026-04-14 22:19 48.28053 11.28608 33819 ft 479 kts 130°
2026-04-14 22:20 48.26023 11.32473 34038 ft 477 kts 122°
2026-04-14 22:20 48.24233 11.36657 34211 ft 476 kts 120°
2026-04-14 22:20 48.22523 11.40916 34372 ft 476 kts 118°
2026-04-14 22:20 48.20861 11.45197 34511 ft 476 kts 118°
2026-04-14 22:21 48.19210 11.49509 34650 ft 477 kts 118°
2026-04-14 22:21 48.17567 11.53811 34779 ft 477 kts 118°
2026-04-14 22:21 48.15914 11.58119 34923 ft 477 kts 118°
2026-04-14 22:21 48.14252 11.62426 35090 ft 477 kts 118°
2026-04-14 22:22 48.12609 11.66662 35265 ft 476 kts 119°
2026-04-14 22:22 48.10946 11.70931 35402 ft 476 kts 119°
2026-04-14 22:22 48.09275 11.75208 35514 ft 476 kts 119°
2026-04-14 22:22 48.07599 11.79491 35642 ft 477 kts 119°
2026-04-14 22:23 48.05925 11.83761 35764 ft 477 kts 119°
2026-04-14 22:23 48.04243 11.88043 35885 ft 477 kts 119°
2026-04-14 22:23 48.02561 11.92318 36017 ft 477 kts 119°
2026-04-14 22:23 48.00899 11.96538 36145 ft 477 kts 119°
2026-04-14 22:24 47.99196 12.00855 36228 ft 478 kts 120°
2026-04-14 22:24 47.95840 12.09341 36242 ft 477 kts 120°
2026-04-14 22:25 47.91823 12.17179 36250 ft 478 kts 135°
2026-04-14 22:25 47.86882 12.23814 36249 ft 479 kts 139°
2026-04-14 22:26 47.81774 12.30170 36251 ft 479 kts 140°
2026-04-14 22:26 47.76672 12.36451 36250 ft 479 kts 140°
2026-04-14 22:27 47.71558 12.42780 36252 ft 478 kts 139°
2026-04-14 22:27 47.66457 12.49107 36254 ft 478 kts 139°
2026-04-14 22:28 47.61382 12.55493 36251 ft 478 kts 137°
2026-04-14 22:28 47.56540 12.62161 36253 ft 478 kts 136°
2026-04-14 22:29 47.51742 12.68942 36238 ft 476 kts 137°
2026-04-14 22:29 47.46944 12.75662 36235 ft 474 kts 137°
2026-04-14 22:30 47.42139 12.82323 36250 ft 474 kts 137°
2026-04-14 22:30 47.37350 12.88926 36247 ft 474 kts 138°
2026-04-14 22:31 47.32529 12.95553 36227 ft 474 kts 138°
2026-04-14 22:31 47.27713 13.02159 36211 ft 473 kts 138°
2026-04-14 22:32 47.22892 13.08757 36225 ft 472 kts 139°
2026-04-14 22:32 47.18084 13.15319 36218 ft 472 kts 139°
2026-04-14 22:33 47.13261 13.21884 36219 ft 472 kts 139°
2026-04-14 22:33 47.08476 13.28382 36201 ft 472 kts 139°
2026-04-14 22:34 47.03659 13.34905 36202 ft 471 kts 139°
2026-04-14 22:34 46.98841 13.41414 36197 ft 471 kts 139°
2026-04-14 22:35 46.94057 13.47860 36194 ft 471 kts 139°
2026-04-14 22:35 46.89233 13.54344 36190 ft 471 kts 139°
2026-04-14 22:36 46.84412 13.60807 36189 ft 470 kts 139°
2026-04-14 22:36 46.79588 13.67257 36188 ft 470 kts 139°
2026-04-14 22:37 46.74799 13.73644 36188 ft 470 kts 139°
2026-04-14 22:37 46.69963 13.80078 36187 ft 471 kts 139°
2026-04-14 22:38 46.65124 13.86500 36188 ft 471 kts 139°
2026-04-14 22:38 46.60280 13.92912 36186 ft 471 kts 139°
2026-04-14 22:39 46.55450 13.99289 36187 ft 472 kts 139°
2026-04-14 22:39 46.50595 14.05683 36186 ft 472 kts 139°
2026-04-14 22:40 46.45721 14.12085 36201 ft 472 kts 139°
2026-04-14 22:40 46.40851 14.18467 36197 ft 472 kts 139°
2026-04-14 22:41 46.36013 14.24791 36185 ft 472 kts 140°
2026-04-14 22:41 46.31140 14.31144 36184 ft 472 kts 140°
2026-04-14 22:42 46.26266 14.37484 36182 ft 471 kts 140°
2026-04-14 22:42 46.21389 14.43810 36184 ft 470 kts 140°
2026-04-14 22:43 46.16521 14.50111 36182 ft 470 kts 140°
2026-04-14 22:43 46.11687 14.56352 36183 ft 469 kts 140°
2026-04-14 22:44 46.06821 14.62619 36180 ft 469 kts 140°
2026-04-14 22:44 46.01942 14.68886 36190 ft 469 kts 140°
2026-04-14 22:45 45.97083 14.75113 36177 ft 467 kts 140°
2026-04-14 22:45 45.92256 14.81284 36175 ft 467 kts 140°
2026-04-14 22:46 45.87403 14.87473 36176 ft 467 kts 140°
2026-04-14 22:46 45.82546 14.93650 36173 ft 467 kts 140°
2026-04-14 22:47 45.77686 14.99816 36169 ft 467 kts 140°
2026-04-14 22:47 45.72846 15.05943 36172 ft 467 kts 140°
2026-04-14 22:48 45.67982 15.12088 36170 ft 466 kts 141°
2026-04-14 22:48 45.63118 15.18216 36167 ft 466 kts 141°
2026-04-14 22:49 45.58246 15.24337 36167 ft 466 kts 141°
2026-04-14 22:49 45.53376 15.30443 36163 ft 466 kts 141°
2026-04-14 22:50 45.48539 15.36492 36165 ft 465 kts 141°
2026-04-14 22:50 45.43668 15.42572 36162 ft 465 kts 141°
2026-04-14 22:51 45.38799 15.48634 36162 ft 465 kts 141°
2026-04-14 22:51 45.33926 15.54685 36164 ft 465 kts 141°
2026-04-14 22:52 45.29075 15.60694 36163 ft 465 kts 141°
2026-04-14 22:52 45.24207 15.66712 36162 ft 463 kts 141°
2026-04-14 22:53 45.19354 15.72698 36162 ft 462 kts 141°
2026-04-14 22:53 45.14499 15.78670 36159 ft 462 kts 142°
2026-04-14 22:54 45.09666 15.84602 36157 ft 462 kts 142°
2026-04-14 22:54 45.04806 15.90553 36146 ft 462 kts 142°
2026-04-14 22:55 44.99945 15.96492 36156 ft 462 kts 142°
2026-04-14 22:55 44.95084 16.02415 36155 ft 462 kts 142°
2026-04-14 22:56 44.90221 16.08328 36150 ft 462 kts 142°
2026-04-14 22:56 44.85380 16.14202 36148 ft 462 kts 142°
2026-04-14 22:57 44.80509 16.20097 36144 ft 462 kts 142°
2026-04-14 22:57 44.75627 16.25992 36143 ft 462 kts 142°
2026-04-14 22:58 44.70744 16.31875 36143 ft 462 kts 142°
2026-04-14 22:58 44.65886 16.37715 36139 ft 462 kts 142°
2026-04-14 22:59 44.61001 16.43575 36129 ft 462 kts 142°
2026-04-14 22:59 44.56111 16.49426 36137 ft 462 kts 142°
2026-04-14 23:00 44.51228 16.55254 36136 ft 461 kts 142°
2026-04-14 23:00 44.46344 16.61071 36134 ft 460 kts 142°
2026-04-14 23:01 44.41498 16.66830 36132 ft 460 kts 142°
2026-04-14 23:01 44.36615 16.72619 36122 ft 461 kts 142°
2026-04-14 23:02 44.31719 16.78411 36124 ft 462 kts 142°
2026-04-14 23:02 44.26821 16.84194 36118 ft 461 kts 142°
2026-04-14 23:03 44.21945 16.89936 36123 ft 461 kts 142°
2026-04-14 23:03 44.17042 16.95697 36106 ft 461 kts 142°
2026-04-14 23:04 44.12126 17.01460 36122 ft 463 kts 142°
2026-04-14 23:04 44.07197 17.07226 36112 ft 463 kts 143°
2026-04-14 23:05 44.02298 17.12944 36119 ft 462 kts 143°
2026-04-14 23:05 43.97376 17.18676 36114 ft 462 kts 143°
2026-04-14 23:06 43.92449 17.24400 36125 ft 463 kts 143°
2026-04-14 23:06 43.87504 17.30132 36100 ft 463 kts 143°
2026-04-14 23:07 43.82598 17.35808 36102 ft 462 kts 143°
2026-04-14 23:07 43.77669 17.41496 36102 ft 461 kts 143°
2026-04-14 23:08 43.72740 17.47173 36111 ft 461 kts 143°
2026-04-14 23:08 43.67805 17.52843 36106 ft 460 kts 143°
2026-04-14 23:09 43.62911 17.58453 36109 ft 460 kts 143°
2026-04-14 23:09 43.57992 17.64081 36102 ft 458 kts 143°
2026-04-14 23:10 43.52973 17.69454 36097 ft 456 kts 147°
2026-04-14 23:10 43.47753 17.74401 36097 ft 455 kts 149°
2026-04-14 23:11 43.42496 17.79303 36094 ft 456 kts 149°
2026-04-14 23:11 43.37295 17.84207 36104 ft 457 kts 148°
2026-04-14 23:12 43.32071 17.89163 36104 ft 456 kts 148°
2026-04-14 23:12 43.26848 17.94118 36103 ft 456 kts 148°
2026-04-14 23:13 43.21618 17.99069 36100 ft 456 kts 148°
2026-04-14 23:13 43.16392 18.04002 36095 ft 456 kts 148°
2026-04-14 23:14 43.11210 18.08883 36092 ft 454 kts 148°
2026-04-14 23:14 43.05995 18.13785 36093 ft 454 kts 148°
2026-04-14 23:15 43.00790 18.18666 36097 ft 454 kts 149°
2026-04-14 23:15 42.95569 18.23553 36090 ft 454 kts 149°
2026-04-14 23:16 42.90357 18.28420 36094 ft 454 kts 149°
2026-04-14 23:16 42.85148 18.33276 36088 ft 454 kts 149°
2026-04-14 23:17 42.79930 18.38129 36089 ft 454 kts 149°
2026-04-14 23:17 42.74774 18.42914 36091 ft 454 kts 149°
2026-04-14 23:18 42.66958 18.50151 36097 ft 452 kts 149°
2026-04-14 23:18 42.61769 18.54943 36091 ft 451 kts 149°
2026-04-14 23:19 42.56580 18.59723 36079 ft 451 kts 150°
2026-04-14 23:19 42.51379 18.64505 36076 ft 451 kts 150°
2026-04-14 23:20 42.46187 18.69270 36072 ft 451 kts 150°
2026-04-14 23:20 42.41009 18.74014 36075 ft 449 kts 150°
2026-04-14 23:21 42.35839 18.78739 36067 ft 448 kts 150°
2026-04-14 23:21 42.30672 18.83453 36076 ft 447 kts 150°
2026-04-14 23:22 42.25514 18.88148 36073 ft 447 kts 150°
2026-04-14 23:22 42.20349 18.92839 36075 ft 446 kts 150°
2026-04-14 23:23 42.15234 18.97477 36081 ft 446 kts 150°
2026-04-14 23:23 42.10924 19.01378 36074 ft 446 kts 150°
2026-04-14 23:24 42.05764 19.06039 36080 ft 446 kts 150°
2026-04-14 23:24 42.00611 19.10685 36076 ft 446 kts 150°
2026-04-14 23:25 41.95455 19.15324 36073 ft 447 kts 150°
2026-04-14 23:25 41.90275 19.19974 36072 ft 448 kts 150°
2026-04-14 23:26 41.85115 19.24600 36070 ft 448 kts 150°
2026-04-14 23:26 41.79936 19.29233 36067 ft 448 kts 150°
2026-04-14 23:27 41.74683 19.33714 36064 ft 447 kts 153°
2026-04-14 23:27 41.69305 19.37863 36064 ft 446 kts 154°
2026-04-14 23:28 41.63898 19.41961 36061 ft 446 kts 154°
2026-04-14 23:28 41.58515 19.46073 36051 ft 446 kts 154°
2026-04-14 23:29 41.53121 19.50215 36057 ft 447 kts 154°
2026-04-14 23:29 41.47735 19.54352 36060 ft 447 kts 154°
2026-04-14 23:30 41.42350 19.58480 36059 ft 447 kts 154°
2026-04-14 23:30 41.36965 19.62599 36058 ft 446 kts 154°
2026-04-14 23:31 41.31569 19.66717 36055 ft 446 kts 154°
2026-04-14 23:31 41.26181 19.70820 36072 ft 446 kts 154°
2026-04-14 23:32 41.20800 19.74913 36062 ft 446 kts 154°
2026-04-14 23:32 41.15419 19.78996 36058 ft 446 kts 154°
2026-04-14 23:33 41.10027 19.83079 36059 ft 446 kts 154°
2026-04-14 23:33 41.04676 19.87123 36054 ft 446 kts 154°
2026-04-14 23:34 40.99287 19.91190 36052 ft 446 kts 154°
2026-04-14 23:34 40.93892 19.95252 36054 ft 446 kts 154°
2026-04-14 23:35 40.88501 19.99304 36059 ft 446 kts 154°
2026-04-14 23:35 40.83107 20.03352 36050 ft 446 kts 154°
2026-04-14 23:36 40.77712 20.07391 36068 ft 446 kts 154°
2026-04-14 23:36 40.72309 20.11429 36067 ft 446 kts 154°
2026-04-14 23:37 40.66912 20.15455 36065 ft 447 kts 155°
2026-04-14 23:37 40.61494 20.19485 36062 ft 448 kts 155°
2026-04-14 23:38 40.56067 20.23519 36077 ft 448 kts 155°
2026-04-14 23:38 40.50638 20.27549 36078 ft 447 kts 155°
2026-04-14 23:39 40.45220 20.31563 36074 ft 447 kts 155°
2026-04-14 23:39 40.39802 20.35567 36090 ft 447 kts 155°
2026-04-14 23:40 40.34385 20.39562 36089 ft 447 kts 155°
2026-04-14 23:40 40.28969 20.43550 36088 ft 445 kts 155°
2026-04-14 23:41 40.23604 20.47493 36079 ft 445 kts 156°
2026-04-14 23:41 40.18193 20.51461 36103 ft 447 kts 156°
2026-04-14 23:42 40.12770 20.55431 36104 ft 447 kts 156°
2026-04-14 23:42 40.07342 20.59384 36095 ft 446 kts 157°
2026-04-14 23:43 40.01788 20.62959 36112 ft 444 kts 160°
2026-04-14 23:43 39.96180 20.66309 36112 ft 443 kts 160°
2026-04-14 23:44 39.90574 20.69661 36126 ft 444 kts 160°
2026-04-14 23:44 39.84978 20.73044 36118 ft 443 kts 160°
2026-04-14 23:45 39.79380 20.76444 36126 ft 443 kts 160°
2026-04-14 23:45 39.73794 20.79832 36129 ft 443 kts 160°
2026-04-14 23:46 39.68215 20.83287 36128 ft 444 kts 158°
2026-04-14 23:46 39.62741 20.87005 36127 ft 444 kts 157°
2026-04-14 23:47 39.57301 20.90786 36125 ft 442 kts 157°
2026-04-14 23:47 39.51879 20.94521 36120 ft 441 kts 157°
2026-04-14 23:48 39.46447 20.98227 36106 ft 441 kts 157°
2026-04-14 23:48 39.41015 21.01920 36115 ft 442 kts 158°
2026-04-14 23:49 39.35607 21.05590 36096 ft 441 kts 157°
2026-04-14 23:49 39.30186 21.09264 36086 ft 440 kts 158°
2026-04-14 23:50 39.24769 21.12929 36090 ft 440 kts 158°
2026-04-14 23:50 39.19349 21.16588 36092 ft 440 kts 158°
2026-04-14 23:51 39.13922 21.20245 36095 ft 440 kts 157°
2026-04-14 23:51 39.08480 21.23908 36083 ft 441 kts 158°
2026-04-14 23:52 39.03046 21.27558 36094 ft 441 kts 158°
2026-04-14 23:52 38.97615 21.31200 36091 ft 440 kts 158°
2026-04-14 23:53 38.92181 21.34837 36090 ft 441 kts 158°
2026-04-14 23:53 38.86726 21.38482 36078 ft 442 kts 158°
2026-04-14 23:54 38.81279 21.42118 36093 ft 442 kts 158°
2026-04-14 23:54 38.75828 21.45750 36093 ft 442 kts 158°
2026-04-14 23:55 38.70376 21.49375 36084 ft 442 kts 158°
2026-04-14 23:55 38.64916 21.52997 36085 ft 442 kts 158°
2026-04-14 23:56 38.59463 21.56611 36098 ft 442 kts 158°
2026-04-14 23:56 38.54004 21.60222 36097 ft 442 kts 158°
2026-04-14 23:57 38.48550 21.63825 36086 ft 442 kts 158°
2026-04-14 23:57 38.43124 21.67403 36091 ft 441 kts 158°
2026-04-14 23:58 38.37668 21.70994 36079 ft 442 kts 158°
2026-04-14 23:58 38.32212 21.74579 36075 ft 441 kts 158°
2026-04-14 23:59 38.26755 21.78158 36072 ft 441 kts 158°
2026-04-14 23:59 38.21288 21.81738 36092 ft 441 kts 158°
2026-04-15 00:00 38.15830 21.85308 36081 ft 441 kts 158°
2026-04-15 00:00 38.10371 21.88870 36086 ft 441 kts 158°
2026-04-15 00:01 38.04905 21.92431 36086 ft 441 kts 158°
2026-04-15 00:01 37.99442 21.95983 36094 ft 441 kts 158°
2026-04-15 00:02 37.93975 21.99532 36098 ft 442 kts 158°
2026-04-15 00:02 37.88498 22.03083 36088 ft 442 kts 158°
2026-04-15 00:03 37.83019 22.06628 36110 ft 443 kts 158°
2026-04-15 00:03 37.77537 22.10170 36103 ft 443 kts 158°
2026-04-15 00:04 37.72055 22.13706 36092 ft 443 kts 158°
2026-04-15 00:04 37.66555 22.17248 36103 ft 444 kts 158°
2026-04-15 00:05 37.61087 22.20762 36123 ft 444 kts 158°
2026-04-15 00:05 37.55590 22.24288 36118 ft 443 kts 158°
2026-04-15 00:06 37.50085 22.27815 36111 ft 443 kts 158°
2026-04-15 00:06 37.44587 22.31333 36113 ft 443 kts 158°
2026-04-15 00:07 37.39087 22.34845 36123 ft 443 kts 158°
2026-04-15 00:07 37.33606 22.38328 36124 ft 442 kts 159°
2026-04-15 00:08 37.28116 22.41806 36113 ft 441 kts 159°
2026-04-15 00:08 37.22635 22.45273 36112 ft 441 kts 159°
2026-04-15 00:09 37.17160 22.48731 36120 ft 440 kts 158°
2026-04-15 00:09 37.11701 22.52176 36120 ft 439 kts 158°
2026-04-15 00:10 37.06257 22.55607 36111 ft 438 kts 158°
2026-04-15 00:10 37.00815 22.59028 36122 ft 438 kts 158°
2026-04-15 00:11 36.95403 22.62424 36113 ft 438 kts 158°
2026-04-15 00:11 36.89961 22.65834 36113 ft 438 kts 158°
2026-04-15 00:12 36.84520 22.69240 36113 ft 437 kts 159°
2026-04-15 00:12 36.79074 22.72642 36108 ft 437 kts 159°
2026-04-15 00:13 36.73638 22.76033 36102 ft 437 kts 159°
2026-04-15 00:13 36.68202 22.79418 36085 ft 437 kts 159°
2026-04-15 00:14 36.62781 22.82790 36088 ft 435 kts 159°
2026-04-15 00:14 36.57366 22.86152 36090 ft 434 kts 159°
2026-04-15 00:15 36.52004 22.89475 36091 ft 434 kts 159°
2026-04-15 00:15 36.46605 22.92815 36087 ft 434 kts 159°
2026-04-15 00:16 36.41201 22.96154 36086 ft 434 kts 159°
2026-04-15 00:16 36.35802 22.99485 36076 ft 433 kts 159°
2026-04-15 00:17 36.31315 23.02249 36084 ft 432 kts 159°
2026-04-15 00:17 36.25930 23.05561 36084 ft 432 kts 159°
2026-04-15 00:18 36.17847 23.10524 36086 ft 432 kts 159°
2026-04-15 00:19 36.12469 23.13821 36073 ft 431 kts 159°
2026-04-15 00:19 36.07102 23.17106 36087 ft 430 kts 159°
2026-04-15 00:20 36.01736 23.20385 36068 ft 430 kts 159°
2026-04-15 00:20 35.96360 23.23665 36089 ft 430 kts 159°
2026-04-15 00:21 35.90994 23.26935 36066 ft 430 kts 159°
2026-04-15 00:21 35.85627 23.30200 36067 ft 430 kts 159°
2026-04-15 00:22 35.80261 23.33459 36067 ft 430 kts 159°
2026-04-15 00:22 35.74922 23.36698 36069 ft 430 kts 159°
2026-04-15 00:23 35.69556 23.39947 36055 ft 430 kts 159°
2026-04-15 00:23 35.64190 23.43192 36037 ft 430 kts 159°
2026-04-15 00:24 35.58765 23.46466 36056 ft 432 kts 159°
2026-04-15 00:24 35.53398 23.49700 36056 ft 434 kts 158°
2026-04-15 00:25 35.47980 23.52962 36051 ft 434 kts 158°
2026-04-15 00:25 35.42561 23.56221 36054 ft 434 kts 158°
2026-04-15 00:26 35.37145 23.59471 36051 ft 433 kts 158°
2026-04-15 00:26 35.31720 23.62715 36032 ft 433 kts 159°
2026-04-15 00:27 35.26289 23.65962 36052 ft 436 kts 158°
2026-04-15 00:27 35.20849 23.69261 36052 ft 437 kts 157°
2026-04-15 00:28 35.15448 23.72690 36051 ft 438 kts 156°
2026-04-15 00:28 35.10047 23.76151 36042 ft 438 kts 157°
2026-04-15 00:29 35.04614 23.79611 36033 ft 442 kts 157°
2026-04-15 00:29 34.99142 23.83080 36051 ft 444 kts 157°
2026-04-15 00:30 34.93655 23.86551 36050 ft 444 kts 157°
2026-04-15 00:30 34.88159 23.90022 36050 ft 444 kts 157°
2026-04-15 00:31 34.82673 23.93482 36036 ft 444 kts 157°
2026-04-15 00:31 34.77186 23.96937 36036 ft 444 kts 157°
2026-04-15 00:32 34.71683 24.00395 36046 ft 446 kts 157°
2026-04-15 00:32 34.66192 24.03842 36044 ft 447 kts 157°
2026-04-15 00:33 34.60635 24.07326 36034 ft 447 kts 157°
2026-04-15 00:33 34.55092 24.10794 36044 ft 450 kts 157°
2026-04-15 00:34 34.49526 24.14273 36040 ft 450 kts 157°
2026-04-15 00:34 34.43981 24.17733 36044 ft 451 kts 157°
2026-04-15 00:35 34.38405 24.21208 36048 ft 451 kts 157°
2026-04-15 00:35 34.32828 24.24678 36044 ft 451 kts 157°
2026-04-15 00:36 34.27251 24.28142 36047 ft 451 kts 157°
2026-04-15 00:36 34.21665 24.31606 36048 ft 451 kts 157°
2026-04-15 00:37 34.16071 24.35070 36050 ft 453 kts 157°
2026-04-15 00:37 34.10465 24.38536 36048 ft 453 kts 157°
2026-04-15 00:38 34.04852 24.42002 36049 ft 454 kts 157°
2026-04-15 00:38 33.99399 24.45884 36050 ft 460 kts 146°
2026-04-15 00:39 33.94498 24.50825 36039 ft 463 kts 143°
2026-04-15 00:39 33.89683 24.56013 36061 ft 466 kts 142°
2026-04-15 00:40 33.84875 24.61238 36057 ft 466 kts 142°
2026-04-15 00:40 33.80052 24.66440 36064 ft 466 kts 142°
2026-04-15 00:41 33.75210 24.71630 36061 ft 466 kts 143°
2026-04-15 00:41 33.70372 24.76801 36063 ft 466 kts 143°
2026-04-15 00:42 33.65533 24.81964 36065 ft 466 kts 143°
2026-04-15 00:42 33.60689 24.87125 36055 ft 466 kts 143°
2026-04-15 00:43 33.55824 24.92302 36057 ft 467 kts 143°
2026-04-15 00:43 33.50994 24.97433 36059 ft 467 kts 143°
2026-04-15 00:44 33.46131 25.02593 36049 ft 467 kts 143°
2026-04-15 00:44 33.41262 25.07750 36060 ft 468 kts 143°
2026-04-15 00:45 33.36382 25.12910 36054 ft 468 kts 143°
2026-04-15 00:45 33.31509 25.18056 36063 ft 467 kts 143°
2026-04-15 00:46 33.26634 25.23195 36050 ft 467 kts 143°
2026-04-15 00:46 33.21757 25.28329 36045 ft 467 kts 143°
2026-04-15 00:47 33.16870 25.33465 36037 ft 467 kts 143°
2026-04-15 00:47 33.11984 25.38592 36046 ft 468 kts 143°
2026-04-15 00:48 33.07089 25.43719 36043 ft 468 kts 143°
2026-04-15 00:48 33.02193 25.48841 36043 ft 468 kts 143°
2026-04-15 00:49 32.97281 25.53971 36035 ft 470 kts 143°
2026-04-15 00:49 32.92366 25.59097 36034 ft 470 kts 143°
2026-04-15 00:50 32.87447 25.64220 36010 ft 470 kts 143°
2026-04-15 00:50 32.82523 25.69339 36026 ft 471 kts 143°
2026-04-15 00:51 32.77586 25.74465 36026 ft 471 kts 143°
2026-04-15 00:51 32.72655 25.79576 36023 ft 471 kts 143°
2026-04-15 00:52 32.67724 25.84679 36022 ft 470 kts 143°
2026-04-15 00:52 32.62797 25.89770 36024 ft 470 kts 143°
2026-04-15 00:53 32.57862 25.94862 36023 ft 470 kts 143°
2026-04-15 00:53 32.52931 25.99942 36024 ft 470 kts 143°
2026-04-15 00:54 32.47994 26.05019 36023 ft 470 kts 143°
2026-04-15 00:54 32.43056 26.10091 36024 ft 470 kts 143°
2026-04-15 00:55 32.38116 26.15158 36029 ft 470 kts 143°
2026-04-15 00:55 32.33185 26.20206 36036 ft 472 kts 143°
2026-04-15 00:56 32.28215 26.25288 36018 ft 473 kts 143°
2026-04-15 00:56 32.23238 26.30370 36021 ft 474 kts 143°
2026-04-15 00:57 32.18248 26.35457 36027 ft 474 kts 144°
2026-04-15 00:57 32.13246 26.40549 36015 ft 474 kts 144°
2026-04-15 00:58 32.08251 26.45626 36023 ft 474 kts 144°
2026-04-15 00:58 32.03248 26.50703 36027 ft 476 kts 144°
2026-04-15 00:59 31.98227 26.55790 36026 ft 476 kts 144°
2026-04-15 00:59 31.93195 26.60882 36026 ft 476 kts 144°
2026-04-15 01:00 31.88174 26.65955 36028 ft 476 kts 144°
2026-04-15 01:00 31.83152 26.71022 36031 ft 476 kts 144°
2026-04-15 01:01 31.78127 26.76083 36026 ft 476 kts 144°
2026-04-15 01:01 31.73091 26.81148 36025 ft 477 kts 144°
2026-04-15 01:02 31.68072 26.86186 36026 ft 479 kts 144°
2026-04-15 01:02 31.63014 26.91260 36028 ft 478 kts 145°
2026-04-15 01:03 31.57966 26.96316 36029 ft 477 kts 145°
2026-04-15 01:03 31.52910 27.01372 36032 ft 477 kts 145°
2026-04-15 01:04 31.47859 27.06413 36033 ft 477 kts 145°
2026-04-15 01:04 31.42805 27.11451 36014 ft 477 kts 145°
2026-04-15 01:05 31.37727 27.16504 36035 ft 481 kts 145°
2026-04-15 01:05 31.32539 27.21427 36038 ft 475 kts 153°
2026-04-15 01:06 31.26820 27.25069 36053 ft 466 kts 160°
2026-04-15 01:06 31.20948 27.28302 36038 ft 466 kts 161°
2026-04-15 01:07 31.15063 27.31447 36050 ft 466 kts 161°
2026-04-15 01:07 31.10160 27.34075 36042 ft 468 kts 162°
2026-04-15 01:08 31.04236 27.37267 36035 ft 470 kts 161°
2026-04-15 01:08 30.98297 27.40478 36031 ft 470 kts 161°
2026-04-15 01:09 30.92513 27.44112 36031 ft 479 kts 150°
2026-04-15 01:09 30.87163 27.48797 36015 ft 482 kts 148°
2026-04-15 01:10 30.81936 27.53662 36027 ft 481 kts 148°
2026-04-15 01:10 30.76708 27.58555 36026 ft 484 kts 148°
2026-04-15 01:11 30.71445 27.63445 36028 ft 484 kts 148°
2026-04-15 01:11 30.66185 27.68307 36026 ft 483 kts 148°
2026-04-15 01:12 30.60919 27.73161 36018 ft 483 kts 148°
2026-04-15 01:12 30.55645 27.78015 36018 ft 484 kts 148°
2026-04-15 01:13 30.50374 27.82861 36006 ft 484 kts 148°
2026-04-15 01:13 30.45071 27.87727 36012 ft 487 kts 148°
2026-04-15 01:14 30.39757 27.92599 36013 ft 487 kts 148°
2026-04-15 01:14 30.34434 27.97474 36012 ft 487 kts 148°
2026-04-15 01:15 30.29117 28.02336 36012 ft 487 kts 148°
2026-04-15 01:15 30.23829 28.07163 35996 ft 487 kts 148°
2026-04-15 01:16 30.18517 28.12007 36007 ft 486 kts 148°
2026-04-15 01:16 30.13209 28.16839 35995 ft 485 kts 148°
2026-04-15 01:17 30.07904 28.21661 35997 ft 485 kts 148°
2026-04-15 01:17 29.99943 28.28884 35990 ft 485 kts 148°
2026-04-15 01:18 29.94630 28.33697 35991 ft 485 kts 148°
2026-04-15 01:18 29.89320 28.38501 35988 ft 485 kts 147°
2026-04-15 01:19 29.84515 28.44082 35986 ft 497 kts 135°
2026-04-15 01:19 29.80189 28.50339 35984 ft 501 kts 133°
2026-04-15 01:20 29.75957 28.56722 35988 ft 502 kts 132°
2026-04-15 01:20 29.71725 28.63099 35987 ft 501 kts 133°
2026-04-15 01:21 29.67470 28.69455 35976 ft 500 kts 133°
2026-04-15 01:21 29.63223 28.75771 35976 ft 499 kts 133°
2026-04-15 01:22 29.59002 28.82034 35995 ft 499 kts 133°
2026-04-15 01:22 29.54754 28.88329 35992 ft 499 kts 133°
2026-04-15 01:23 29.50500 28.94626 35990 ft 499 kts 133°
2026-04-15 01:23 29.46234 29.00928 35988 ft 502 kts 133°
2026-04-15 01:24 29.41782 29.07095 35985 ft 497 kts 142°
2026-04-15 01:24 29.36532 29.12151 35985 ft 492 kts 148°
2026-04-15 01:25 29.31095 29.16904 35988 ft 491 kts 149°
2026-04-15 01:25 29.25627 29.21595 35988 ft 491 kts 149°
2026-04-15 01:26 29.20161 29.26300 35985 ft 491 kts 149°
2026-04-15 01:26 29.14707 29.31013 35984 ft 492 kts 149°
2026-04-15 01:27 29.09213 29.35702 35988 ft 493 kts 149°
2026-04-15 01:27 29.03674 29.40309 35987 ft 493 kts 150°
2026-04-15 01:28 28.98131 29.44897 35990 ft 493 kts 150°
2026-04-15 01:28 28.92576 29.49500 35993 ft 493 kts 150°
2026-04-15 01:29 28.87035 29.54093 35979 ft 493 kts 150°
2026-04-15 01:29 28.81473 29.58699 35989 ft 495 kts 150°
2026-04-15 01:30 28.75884 29.63320 35993 ft 497 kts 150°
2026-04-15 01:30 28.70288 29.67943 35994 ft 497 kts 150°
2026-04-15 01:31 28.64723 29.72535 35991 ft 497 kts 150°
2026-04-15 01:31 28.59123 29.77147 35990 ft 497 kts 150°
2026-04-15 01:32 28.53526 29.81751 35990 ft 497 kts 150°
2026-04-15 01:32 28.47894 29.86375 36000 ft 501 kts 150°
2026-04-15 01:33 28.42229 29.91019 35982 ft 503 kts 150°
2026-04-15 01:33 28.36547 29.95677 36002 ft 503 kts 150°
2026-04-15 01:34 28.30878 30.00316 35987 ft 503 kts 150°
2026-04-15 01:34 28.25194 30.04961 36003 ft 503 kts 150°
2026-04-15 01:35 28.19518 30.09593 35982 ft 503 kts 150°
2026-04-15 01:35 28.13820 30.14233 35998 ft 505 kts 150°
2026-04-15 01:36 28.08130 30.18865 35997 ft 503 kts 150°
2026-04-15 01:36 28.02435 30.23494 35998 ft 503 kts 150°
2026-04-15 01:37 27.96747 30.28110 35993 ft 503 kts 150°
2026-04-15 01:37 27.91058 30.32721 35998 ft 503 kts 150°
2026-04-15 01:38 27.85359 30.37332 35999 ft 506 kts 150°
2026-04-15 01:38 27.79646 30.41947 35998 ft 509 kts 150°
2026-04-15 01:39 27.73880 30.46602 36002 ft 510 kts 150°
2026-04-15 01:39 27.68106 30.51260 36000 ft 510 kts 150°
2026-04-15 01:40 27.62330 30.55911 36004 ft 510 kts 150°
2026-04-15 01:40 27.56552 30.60558 35986 ft 510 kts 151°
2026-04-15 01:41 27.50744 30.65219 36006 ft 513 kts 151°
2026-04-15 01:41 27.44922 30.69888 36006 ft 514 kts 151°
2026-04-15 01:42 27.39092 30.74558 36010 ft 514 kts 151°
2026-04-15 01:42 27.33266 30.79220 36010 ft 514 kts 151°
2026-04-15 01:43 27.27432 30.83880 36009 ft 514 kts 151°
2026-04-15 01:43 27.21598 30.88534 36011 ft 516 kts 152°
2026-04-15 01:44 27.15725 30.93210 36011 ft 518 kts 152°
2026-04-15 01:44 27.09843 30.97890 35995 ft 518 kts 151°
2026-04-15 01:45 27.04035 31.02712 35993 ft 524 kts 143°
2026-04-15 01:45 26.99048 31.08767 35992 ft 531 kts 135°
2026-04-15 01:46 26.94357 31.15178 35996 ft 533 kts 134°
2026-04-15 01:46 26.89738 31.21621 35997 ft 533 kts 134°
2026-04-15 01:47 26.85052 31.28114 35998 ft 532 kts 134°
2026-04-15 01:47 26.80374 31.34546 35994 ft 532 kts 134°
2026-04-15 01:48 26.75727 31.40911 35993 ft 532 kts 134°
2026-04-15 01:48 26.71047 31.47314 35988 ft 532 kts 134°
2026-04-15 01:49 26.66360 31.53717 35979 ft 532 kts 134°
2026-04-15 01:49 26.61681 31.60103 35980 ft 531 kts 134°
2026-04-15 01:50 26.57008 31.66471 35974 ft 530 kts 134°
2026-04-15 01:50 26.52319 31.72849 35974 ft 531 kts 134°
2026-04-15 01:51 26.47628 31.79222 35962 ft 534 kts 134°
2026-04-15 01:51 26.42891 31.85646 35963 ft 536 kts 134°
2026-04-15 01:52 26.38161 31.92056 35963 ft 536 kts 134°
2026-04-15 01:52 26.33417 31.98476 35958 ft 536 kts 134°
2026-04-15 01:53 26.28679 32.04877 35957 ft 536 kts 134°
2026-04-15 01:53 26.23929 32.11287 35949 ft 535 kts 134°
2026-04-15 01:54 26.19197 32.17664 35951 ft 534 kts 134°
2026-04-15 01:54 26.14460 32.24035 35938 ft 534 kts 134°
2026-04-15 01:55 26.10519 32.29330 35941 ft 536 kts 134°
2026-04-15 01:55 26.05728 32.35754 35934 ft 541 kts 134°
2026-04-15 01:56 26.00156 32.43223 35928 ft 539 kts 134°
2026-04-15 01:56 25.95373 32.49624 35927 ft 538 kts 134°
2026-04-15 01:57 25.91363 32.54982 35921 ft 538 kts 134°
2026-04-15 01:57 25.86604 32.61331 35917 ft 539 kts 134°
2026-04-15 01:58 25.81814 32.67722 35912 ft 538 kts 134°
2026-04-15 01:58 25.76984 32.74145 35912 ft 538 kts 134°
2026-04-15 01:59 25.72591 32.80816 35892 ft 541 kts 128°
2026-04-15 01:59 25.68350 32.87839 35911 ft 546 kts 127°
2026-04-15 02:00 25.64202 32.94821 35914 ft 546 kts 127°
2026-04-15 02:00 25.60002 33.01879 35909 ft 545 kts 127°
2026-04-15 02:01 25.55844 33.08833 35914 ft 545 kts 127°
2026-04-15 02:01 25.51645 33.15833 35917 ft 545 kts 127°
2026-04-15 02:02 25.47451 33.22811 35913 ft 545 kts 127°
2026-04-15 02:02 25.43243 33.29805 35917 ft 545 kts 127°
2026-04-15 02:03 25.39038 33.36783 35917 ft 545 kts 127°
2026-04-15 02:03 25.34830 33.43758 35917 ft 545 kts 127°
2026-04-15 02:04 25.30619 33.50728 35919 ft 546 kts 127°
2026-04-15 02:04 25.26403 33.57695 35912 ft 546 kts 127°
2026-04-15 02:05 25.22176 33.64672 35923 ft 546 kts 127°
2026-04-15 02:05 25.17952 33.71637 35922 ft 546 kts 127°
2026-04-15 02:06 25.13714 33.78612 35919 ft 548 kts 127°
2026-04-15 02:06 25.09463 33.85599 35922 ft 548 kts 127°
2026-04-15 02:07 25.05219 33.92565 35924 ft 548 kts 127°
2026-04-15 02:07 25.00961 33.99543 35925 ft 548 kts 126°
2026-04-15 02:08 24.96704 34.06506 35925 ft 549 kts 126°
2026-04-15 02:08 24.92431 34.13491 35929 ft 549 kts 127°
2026-04-15 02:09 24.88165 34.20453 35928 ft 549 kts 127°
2026-04-15 02:09 24.83916 34.27376 35929 ft 549 kts 126°
2026-04-15 02:10 24.79611 34.34379 35926 ft 549 kts 126°
2026-04-15 02:10 24.75358 34.41288 35931 ft 549 kts 126°
2026-04-15 02:11 24.71074 34.48237 35926 ft 549 kts 126°
2026-04-15 02:11 24.66778 34.55197 35929 ft 549 kts 126°
2026-04-15 02:12 24.62489 34.62135 35932 ft 549 kts 126°
2026-04-15 02:12 24.58195 34.69071 35931 ft 549 kts 126°
2026-04-15 02:13 24.53895 34.76008 35929 ft 549 kts 126°
2026-04-15 02:13 24.49596 34.82932 35932 ft 549 kts 126°
2026-04-15 02:14 24.45288 34.89860 35930 ft 549 kts 126°
2026-04-15 02:14 24.40983 34.96774 35930 ft 549 kts 126°
2026-04-15 02:15 24.36671 35.03689 35921 ft 548 kts 126°
2026-04-15 02:15 24.32362 35.10592 35932 ft 549 kts 126°
2026-04-15 02:16 24.28043 35.17503 35910 ft 549 kts 126°
2026-04-15 02:16 24.23753 35.24357 35930 ft 549 kts 126°
2026-04-15 02:17 24.19435 35.31242 35908 ft 548 kts 126°
2026-04-15 02:17 24.15106 35.38134 35919 ft 549 kts 126°
2026-04-15 02:18 24.10785 35.45006 35913 ft 548 kts 126°
2026-04-15 02:18 24.06459 35.51878 35901 ft 549 kts 126°
2026-04-15 02:19 24.02125 35.58751 35909 ft 548 kts 126°
2026-04-15 02:19 23.97793 35.65613 35890 ft 548 kts 126°
2026-04-15 02:20 23.93453 35.72473 35911 ft 548 kts 126°
2026-04-15 02:20 23.89110 35.79324 35901 ft 549 kts 126°
2026-04-15 02:21 23.84756 35.86184 35901 ft 549 kts 126°
2026-04-15 02:21 23.80402 35.93035 35900 ft 549 kts 126°
2026-04-15 02:22 23.76038 35.99894 35900 ft 549 kts 126°
2026-04-15 02:23 23.69500 36.10149 35903 ft 549 kts 126°
2026-04-15 02:23 23.65129 36.16995 35903 ft 549 kts 126°
2026-04-15 02:24 23.60762 36.23824 35900 ft 549 kts 126°
2026-04-15 02:24 23.56393 36.30649 35900 ft 549 kts 126°
2026-04-15 02:25 23.52021 36.37468 35900 ft 549 kts 126°
2026-04-15 02:25 23.47639 36.44293 35887 ft 549 kts 126°
2026-04-15 02:26 23.43259 36.51106 35900 ft 550 kts 126°
2026-04-15 02:26 23.38876 36.57916 35903 ft 549 kts 126°
2026-04-15 02:27 23.34492 36.64717 35903 ft 549 kts 126°
2026-04-15 02:27 23.30128 36.71479 35903 ft 549 kts 126°
2026-04-15 02:28 23.25738 36.78272 35899 ft 549 kts 126°
2026-04-15 02:28 23.21316 36.85104 35900 ft 549 kts 126°
2026-04-15 02:29 23.16922 36.91886 35901 ft 549 kts 126°
2026-04-15 02:29 23.12516 36.98675 35900 ft 549 kts 126°
2026-04-15 02:30 23.08116 37.05448 35897 ft 549 kts 126°
2026-04-15 02:30 23.03715 37.12213 35901 ft 549 kts 126°
2026-04-15 02:31 22.99307 37.18968 35893 ft 548 kts 126°
2026-04-15 02:31 22.94912 37.25675 35895 ft 548 kts 126°
2026-04-15 02:32 22.90491 37.32409 35895 ft 548 kts 126°
2026-04-15 02:32 22.86069 37.39141 35895 ft 548 kts 126°
2026-04-15 02:33 22.81644 37.45868 35895 ft 548 kts 126°
2026-04-15 02:33 22.77216 37.52592 35892 ft 548 kts 126°
2026-04-15 02:34 22.72775 37.59328 35896 ft 549 kts 126°
2026-04-15 02:34 22.68346 37.66055 35894 ft 549 kts 126°
2026-04-15 02:35 22.63933 37.72792 35891 ft 549 kts 125°
2026-04-15 02:35 22.59510 37.79540 35891 ft 549 kts 125°
2026-04-15 02:36 22.55088 37.86273 35889 ft 549 kts 126°
2026-04-15 02:36 22.50663 37.93000 35889 ft 549 kts 126°
2026-04-15 02:37 22.46234 37.99722 35888 ft 549 kts 125°
2026-04-15 02:37 22.41803 38.06441 35889 ft 549 kts 126°
2026-04-15 02:38 22.37390 38.13124 35886 ft 549 kts 126°
2026-04-15 02:38 22.32953 38.19834 35885 ft 549 kts 126°
2026-04-15 02:39 22.28514 38.26539 35883 ft 549 kts 126°
2026-04-15 02:39 22.24073 38.33237 35884 ft 549 kts 126°
2026-04-15 02:40 22.19622 38.39941 35879 ft 549 kts 126°
2026-04-15 02:40 22.15175 38.46631 35866 ft 549 kts 126°
2026-04-15 02:41 22.10724 38.53320 35872 ft 549 kts 126°
2026-04-15 02:41 22.06265 38.60011 35873 ft 550 kts 126°
2026-04-15 02:42 22.01795 38.66711 35872 ft 550 kts 126°
2026-04-15 02:42 21.97332 38.73392 35873 ft 549 kts 126°
2026-04-15 02:43 21.92899 38.80021 35870 ft 549 kts 126°
2026-04-15 02:43 21.88431 38.86692 35867 ft 549 kts 126°
2026-04-15 02:44 21.83953 38.93372 35866 ft 549 kts 126°
2026-04-15 02:44 21.79480 39.00034 35860 ft 549 kts 126°
2026-04-15 02:45 21.74680 39.06387 35861 ft 547 kts 139°
2026-04-15 02:45 21.69478 39.10206 35851 ft 537 kts 160°
2026-04-15 02:45 21.66033 39.11512 35856 ft 527 kts 173°
2026-04-15 02:46 21.62398 39.12061 35858 ft 516 kts 185°
2026-04-15 02:46 21.55243 39.12084 35858 ft 514 kts 189°
2026-04-15 02:47 21.48147 39.11816 35861 ft 513 kts 189°
2026-04-15 02:47 21.41004 39.11556 35869 ft 514 kts 189°
2026-04-15 02:48 21.33838 39.11348 35879 ft 515 kts 188°
2026-04-15 02:48 21.26672 39.11166 35881 ft 515 kts 188°
2026-04-15 02:49 21.19497 39.10988 35874 ft 515 kts 188°
2026-04-15 02:49 21.12326 39.10807 35895 ft 516 kts 188°
2026-04-15 02:50 21.05150 39.10625 35896 ft 516 kts 188°
2026-04-15 02:50 20.97967 39.10443 35897 ft 516 kts 188°
2026-04-15 02:51 20.90791 39.10261 35896 ft 516 kts 188°
2026-04-15 02:51 20.83611 39.10080 35894 ft 516 kts 188°
2026-04-15 02:52 20.76419 39.09898 35897 ft 516 kts 188°
2026-04-15 02:52 20.69237 39.09717 35896 ft 516 kts 188°
2026-04-15 02:53 20.62055 39.09536 35900 ft 517 kts 188°
2026-04-15 02:53 20.54867 39.09354 35897 ft 517 kts 188°
2026-04-15 02:54 20.47727 39.09175 35896 ft 517 kts 188°
2026-04-15 02:54 20.40525 39.08994 35887 ft 517 kts 188°
2026-04-15 02:55 20.33337 39.08814 35896 ft 517 kts 188°
2026-04-15 02:55 20.26149 39.08633 35895 ft 517 kts 188°
2026-04-15 02:56 20.18961 39.08453 35892 ft 517 kts 188°
2026-04-15 02:56 20.11757 39.08272 35902 ft 518 kts 188°
2026-04-15 02:57 20.04556 39.08092 35894 ft 518 kts 188°
2026-04-15 02:57 19.97352 39.07912 35900 ft 518 kts 188°
2026-04-15 02:58 19.90147 39.07732 35882 ft 518 kts 188°
2026-04-15 02:58 19.82924 39.07552 35900 ft 519 kts 188°
2026-04-15 02:59 19.75705 39.07372 35899 ft 519 kts 188°
2026-04-15 02:59 19.68486 39.07192 35894 ft 519 kts 188°
2026-04-15 03:00 19.61267 39.07013 35893 ft 519 kts 188°
2026-04-15 03:00 19.54035 39.06833 35890 ft 519 kts 188°
2026-04-15 03:01 19.46862 39.06655 35899 ft 519 kts 188°
2026-04-15 03:01 19.39641 39.06476 35898 ft 519 kts 188°
2026-04-15 03:02 19.32418 39.06296 35891 ft 520 kts 188°
2026-04-15 03:02 19.25172 39.06117 35894 ft 520 kts 188°
2026-04-15 03:03 19.17938 39.05938 35892 ft 520 kts 188°
2026-04-15 03:03 19.10708 39.05733 35886 ft 519 kts 189°
2026-04-15 03:04 19.03499 39.05354 35896 ft 519 kts 190°
2026-04-15 03:04 18.96282 39.04921 35891 ft 519 kts 190°
2026-04-15 03:05 18.89076 39.04501 35884 ft 519 kts 190°
2026-04-15 03:05 18.81867 39.04096 35887 ft 519 kts 189°
2026-04-15 03:06 18.74651 39.03696 35886 ft 520 kts 189°
2026-04-15 03:06 18.67421 39.03296 35886 ft 520 kts 189°
2026-04-15 03:07 18.60204 39.02897 35864 ft 520 kts 189°
2026-04-15 03:07 18.52987 39.02497 35882 ft 519 kts 189°
2026-04-15 03:08 18.45772 39.02098 35885 ft 519 kts 189°
2026-04-15 03:08 18.38555 39.01699 35885 ft 520 kts 189°
2026-04-15 03:09 18.31374 39.01302 35886 ft 519 kts 189°
2026-04-15 03:09 18.24160 39.00905 35884 ft 519 kts 189°
2026-04-15 03:10 18.16948 39.00509 35882 ft 519 kts 189°
2026-04-15 03:10 18.09722 39.00208 35883 ft 520 kts 188°
2026-04-15 03:11 18.02477 38.99964 35881 ft 520 kts 188°
2026-04-15 03:11 17.95251 38.99719 35884 ft 520 kts 188°
2026-04-15 03:12 17.88027 38.99463 35884 ft 520 kts 188°
2026-04-15 03:12 17.80804 38.99203 35869 ft 520 kts 188°
2026-04-15 03:13 17.73574 38.98943 35881 ft 519 kts 188°
2026-04-15 03:13 17.66362 38.98684 35884 ft 519 kts 188°
2026-04-15 03:14 17.59149 38.98425 35884 ft 519 kts 188°
2026-04-15 03:14 17.51936 38.98166 35882 ft 519 kts 188°
2026-04-15 03:15 17.44767 38.97909 35887 ft 518 kts 188°
2026-04-15 03:15 17.37568 38.97649 35889 ft 518 kts 188°
2026-04-15 03:16 17.30370 38.97385 35888 ft 518 kts 188°
2026-04-15 03:16 17.23167 38.97121 35886 ft 517 kts 188°
2026-04-15 03:17 17.15983 38.96859 35889 ft 516 kts 188°
2026-04-15 03:17 17.08798 38.96597 35886 ft 516 kts 188°
2026-04-15 03:18 17.01620 38.96335 35893 ft 516 kts 188°
2026-04-15 03:18 16.94435 38.96073 35891 ft 516 kts 188°
2026-04-15 03:19 16.87256 38.95812 35891 ft 516 kts 188°
2026-04-15 03:19 16.80072 38.95551 35894 ft 516 kts 188°
2026-04-15 03:20 16.72896 38.95290 35874 ft 516 kts 187°
2026-04-15 03:20 16.65740 38.95031 35894 ft 514 kts 187°
2026-04-15 03:21 16.58644 38.94774 35898 ft 513 kts 187°
2026-04-15 03:21 16.47947 38.94385 35899 ft 513 kts 187°
2026-04-15 03:22 16.40817 38.94127 35904 ft 512 kts 187°
2026-04-15 03:22 16.33713 38.93870 35904 ft 511 kts 187°
2026-04-15 03:23 16.26609 38.93613 35917 ft 511 kts 187°
2026-04-15 03:23 16.19511 38.93357 35918 ft 511 kts 187°
2026-04-15 03:24 16.12417 38.93103 35928 ft 509 kts 187°
2026-04-15 03:24 16.05354 38.92847 35933 ft 508 kts 187°
2026-04-15 03:25 15.98299 38.92591 35935 ft 508 kts 187°
2026-04-15 03:25 15.91225 38.92336 35931 ft 508 kts 187°
2026-04-15 03:26 15.84183 38.92082 35944 ft 506 kts 187°
2026-04-15 03:26 15.77147 38.91829 35946 ft 505 kts 187°
2026-04-15 03:27 15.70133 38.91577 35949 ft 505 kts 186°
2026-04-15 03:27 15.63096 38.91324 35967 ft 505 kts 186°
2026-04-15 03:28 15.56091 38.91066 35977 ft 503 kts 186°
2026-04-15 03:28 15.49093 38.90820 35974 ft 502 kts 186°
2026-04-15 03:29 15.42162 38.90573 35986 ft 503 kts 186°
2026-04-15 03:29 15.35172 38.90322 35976 ft 503 kts 186°
2026-04-15 03:30 15.28190 38.90080 35993 ft 501 kts 185°
2026-04-15 03:30 15.21213 38.90014 35982 ft 502 kts 184°
2026-04-15 03:31 15.14221 38.90034 35996 ft 502 kts 184°
2026-04-15 03:31 15.07236 38.90052 35989 ft 502 kts 184°
2026-04-15 03:32 15.00259 38.90054 36007 ft 501 kts 184°
2026-04-15 03:32 14.93294 38.90046 36000 ft 501 kts 184°
2026-04-15 03:33 14.86322 38.90038 36003 ft 501 kts 184°
2026-04-15 03:33 14.79354 38.90030 35999 ft 501 kts 184°
2026-04-15 03:34 14.72389 38.90023 36000 ft 500 kts 184°
2026-04-15 03:34 14.65434 38.90016 35998 ft 500 kts 184°
2026-04-15 03:35 14.59654 38.90010 35997 ft 500 kts 184°
2026-04-15 03:35 14.52689 38.90003 35997 ft 500 kts 183°
2026-04-15 03:36 14.45752 38.89970 36004 ft 498 kts 184°
2026-04-15 03:36 14.38829 38.89891 35999 ft 498 kts 184°
2026-04-15 03:37 14.31903 38.89806 36006 ft 498 kts 184°
2026-04-15 03:37 14.24965 38.89727 36005 ft 498 kts 184°
2026-04-15 03:38 14.18044 38.89652 36011 ft 498 kts 184°
2026-04-15 03:38 14.11151 38.89577 36014 ft 498 kts 184°
2026-04-15 03:39 14.04234 38.89501 36016 ft 498 kts 184°
2026-04-15 03:39 13.97300 38.89392 36018 ft 498 kts 184°
2026-04-15 03:40 13.90393 38.89263 36023 ft 496 kts 184°
2026-04-15 03:40 13.83493 38.89133 36020 ft 496 kts 184°
2026-04-15 03:41 13.76580 38.89008 36023 ft 497 kts 184°
2026-04-15 03:41 13.69670 38.88882 36018 ft 497 kts 184°
2026-04-15 03:42 13.62764 38.88757 36015 ft 495 kts 184°
2026-04-15 03:42 13.55868 38.88633 36017 ft 495 kts 184°
2026-04-15 03:43 13.49002 38.88509 36015 ft 495 kts 184°
2026-04-15 03:43 13.42123 38.88384 36002 ft 495 kts 184°
2026-04-15 03:44 13.35240 38.88260 36015 ft 494 kts 184°
2026-04-15 03:44 13.28369 38.88137 36008 ft 494 kts 184°
2026-04-15 03:45 13.21540 38.88015 36010 ft 494 kts 184°
2026-04-15 03:45 13.14672 38.87892 36009 ft 494 kts 184°
2026-04-15 03:46 13.07795 38.87768 36009 ft 493 kts 184°
2026-04-15 03:46 13.00941 38.87646 36008 ft 493 kts 184°
2026-04-15 03:47 12.94091 38.87522 36016 ft 493 kts 184°
2026-04-15 03:47 12.87233 38.87359 36014 ft 492 kts 184°
2026-04-15 03:48 12.80395 38.87162 36020 ft 492 kts 184°
2026-04-15 03:48 12.73542 38.86962 36034 ft 492 kts 184°
2026-04-15 03:49 12.66709 38.86768 36033 ft 492 kts 184°
2026-04-15 03:49 12.59858 38.86575 36043 ft 492 kts 184°
2026-04-15 03:50 12.53062 38.86385 36047 ft 492 kts 184°
2026-04-15 03:50 12.46222 38.86195 36056 ft 492 kts 184°
2026-04-15 03:51 12.39376 38.86003 36062 ft 492 kts 184°
2026-04-15 03:51 12.32538 38.85812 36061 ft 492 kts 184°
2026-04-15 03:52 12.25696 38.85623 36062 ft 492 kts 184°
2026-04-15 03:52 12.18859 38.85434 36073 ft 492 kts 184°
2026-04-15 03:53 12.12015 38.85244 36061 ft 492 kts 184°
2026-04-15 03:53 12.05176 38.85053 36063 ft 492 kts 184°
2026-04-15 03:54 11.98335 38.84865 36059 ft 491 kts 184°
2026-04-15 03:55 11.88088 38.84581 36089 ft 491 kts 184°
2026-04-15 03:55 11.81264 38.84394 36098 ft 491 kts 184°
2026-04-15 03:56 11.74440 38.84207 36099 ft 491 kts 184°
2026-04-15 03:56 11.67607 38.84018 36105 ft 491 kts 184°
2026-04-15 03:57 11.60835 38.83830 36112 ft 490 kts 184°
2026-04-15 03:57 11.54015 38.83643 36111 ft 490 kts 184°
2026-04-15 03:58 11.47201 38.83456 36114 ft 490 kts 184°
2026-04-15 03:58 11.40391 38.83268 36109 ft 490 kts 184°
2026-04-15 03:59 11.33578 38.83080 36125 ft 490 kts 184°
2026-04-15 03:59 11.26759 38.82892 36132 ft 490 kts 184°
2026-04-15 04:00 11.19929 38.82705 36128 ft 490 kts 184°
2026-04-15 04:00 11.13116 38.82519 36140 ft 490 kts 184°
2026-04-15 04:01 11.06309 38.82331 36143 ft 489 kts 184°
2026-04-15 04:01 10.99504 38.82144 36148 ft 489 kts 184°
2026-04-15 04:02 10.92693 38.81957 36158 ft 489 kts 184°
2026-04-15 04:02 10.85893 38.81772 36151 ft 489 kts 183°
2026-04-15 04:03 10.79097 38.81587 36158 ft 488 kts 183°
2026-04-15 04:03 10.72346 38.81400 36161 ft 488 kts 183°
2026-04-15 04:04 10.65555 38.81214 36154 ft 488 kts 183°
2026-04-15 04:04 10.58758 38.81027 36150 ft 488 kts 183°
2026-04-15 04:05 10.51968 38.80842 36155 ft 488 kts 183°
2026-04-15 04:05 10.45184 38.80656 36153 ft 488 kts 183°
2026-04-15 04:06 10.38382 38.80470 36156 ft 488 kts 183°
2026-04-15 04:06 10.31597 38.80285 36157 ft 488 kts 183°
2026-04-15 04:07 10.24795 38.80099 36162 ft 488 kts 183°
2026-04-15 04:07 10.17999 38.79913 36162 ft 488 kts 183°
2026-04-15 04:08 10.11254 38.79728 36176 ft 488 kts 183°
2026-04-15 04:08 10.04424 38.79543 36179 ft 488 kts 183°
2026-04-15 04:09 9.97668 38.79359 36198 ft 489 kts 183°
2026-04-15 04:09 9.90872 38.79173 36197 ft 489 kts 183°
2026-04-15 04:10 9.84069 38.78988 36218 ft 489 kts 183°
2026-04-15 04:10 9.77270 38.78803 36239 ft 489 kts 183°
2026-04-15 04:11 9.70462 38.78618 36237 ft 489 kts 182°
2026-04-15 04:11 9.63673 38.78433 36262 ft 489 kts 182°
2026-04-15 04:12 9.56868 38.78248 36262 ft 489 kts 182°
2026-04-15 04:12 9.50080 38.78063 36281 ft 489 kts 182°
2026-04-15 04:13 9.43274 38.77879 36296 ft 489 kts 182°
2026-04-15 04:13 9.36485 38.77695 36298 ft 488 kts 182°
2026-04-15 04:14 9.29703 38.77510 36308 ft 488 kts 182°
2026-04-15 04:14 9.22961 38.77327 36309 ft 488 kts 182°
2026-04-15 04:15 9.16178 38.77143 36310 ft 488 kts 182°
2026-04-15 04:15 9.09440 38.76574 36311 ft 485 kts 192°
2026-04-15 04:16 9.02868 38.75101 36302 ft 484 kts 195°
2026-04-15 04:16 8.96343 38.73459 36295 ft 484 kts 195°
2026-04-15 04:17 8.89817 38.71791 36296 ft 484 kts 195°
2026-04-15 04:17 8.83279 38.70137 36286 ft 484 kts 195°
2026-04-15 04:18 8.76742 38.68497 36283 ft 484 kts 195°
2026-04-15 04:18 8.70198 38.66860 36284 ft 484 kts 195°
2026-04-15 04:19 8.63659 38.65224 36276 ft 484 kts 195°
2026-04-15 04:19 8.57142 38.63593 36276 ft 486 kts 195°
2026-04-15 04:20 8.50583 38.61952 36272 ft 486 kts 195°
2026-04-15 04:20 8.44016 38.60309 36273 ft 486 kts 195°
2026-04-15 04:21 8.37455 38.58669 36266 ft 486 kts 195°
2026-04-15 04:21 8.30888 38.57028 36264 ft 486 kts 195°
2026-04-15 04:22 8.24331 38.55391 36254 ft 485 kts 194°
2026-04-15 04:22 8.17647 38.54713 36239 ft 485 kts 177°
2026-04-15 04:23 8.11033 38.56093 36240 ft 487 kts 164°
2026-04-15 04:23 8.04593 38.58211 36222 ft 488 kts 161°
2026-04-15 04:24 7.98165 38.60453 36223 ft 489 kts 161°
2026-04-15 04:24 7.91717 38.62675 36206 ft 490 kts 162°
2026-04-15 04:25 7.85240 38.64873 36205 ft 491 kts 162°
2026-04-15 04:25 7.78767 38.67056 36187 ft 490 kts 162°
2026-04-15 04:26 7.72301 38.69234 36187 ft 490 kts 162°
2026-04-15 04:26 7.65837 38.71414 36181 ft 490 kts 162°
2026-04-15 04:27 7.59381 38.73590 36182 ft 489 kts 162°
2026-04-15 04:27 7.52924 38.75766 36184 ft 489 kts 162°
2026-04-15 04:28 7.46459 38.77944 36185 ft 489 kts 162°
2026-04-15 04:28 7.40010 38.80117 36185 ft 489 kts 162°
2026-04-15 04:29 7.33599 38.82276 36190 ft 489 kts 162°
2026-04-15 04:29 7.27137 38.84451 36189 ft 489 kts 162°
2026-04-15 04:30 7.20683 38.86623 36209 ft 489 kts 162°
2026-04-15 04:30 7.15308 38.88431 36211 ft 489 kts 162°
2026-04-15 04:31 7.08850 38.90603 36212 ft 490 kts 162°
2026-04-15 04:31 7.02343 38.92791 36211 ft 489 kts 162°
2026-04-15 04:32 6.95931 38.94946 36211 ft 489 kts 162°
2026-04-15 04:32 6.89484 38.97113 36218 ft 489 kts 162°
2026-04-15 04:33 6.83020 38.99284 36202 ft 489 kts 162°
2026-04-15 04:33 6.76571 39.01450 36203 ft 489 kts 163°
2026-04-15 04:34 6.70108 39.03620 36187 ft 489 kts 163°
2026-04-15 04:34 6.63663 39.05783 36182 ft 489 kts 162°
2026-04-15 04:35 6.57205 39.07950 36163 ft 489 kts 163°
2026-04-15 04:35 6.50762 39.10112 36162 ft 489 kts 163°
2026-04-15 04:36 6.44317 39.12273 36134 ft 488 kts 163°
2026-04-15 04:36 6.37881 39.14431 36133 ft 487 kts 163°
2026-04-15 04:37 6.31451 39.16586 36114 ft 487 kts 163°
2026-04-15 04:37 6.25055 39.18730 36098 ft 487 kts 163°
2026-04-15 04:38 6.18626 39.20884 36096 ft 487 kts 163°
2026-04-15 04:38 6.12188 39.23040 36082 ft 487 kts 163°
2026-04-15 04:39 6.05765 39.25191 36085 ft 487 kts 163°
2026-04-15 04:39 5.99338 39.27343 36082 ft 487 kts 163°
2026-04-15 04:40 5.92913 39.29494 36076 ft 487 kts 163°
2026-04-15 04:40 5.86484 39.31644 36067 ft 487 kts 163°
2026-04-15 04:41 5.80050 39.33796 36073 ft 488 kts 163°
2026-04-15 04:41 5.73603 39.35953 36076 ft 488 kts 163°
2026-04-15 04:42 5.67154 39.38101 36071 ft 488 kts 165°
2026-04-15 04:42 5.60535 39.39546 36069 ft 486 kts 171°
2026-04-15 04:43 5.53868 39.40707 36070 ft 486 kts 172°
2026-04-15 04:43 5.47231 39.41806 36064 ft 486 kts 172°
2026-04-15 04:44 5.40512 39.42923 36063 ft 486 kts 172°
2026-04-15 04:44 5.33877 39.44036 36064 ft 487 kts 172°
2026-04-15 04:45 5.27204 39.45161 36057 ft 486 kts 172°
2026-04-15 04:45 5.20543 39.46284 36059 ft 484 kts 172°
2026-04-15 04:46 5.13902 39.47403 36056 ft 484 kts 172°
2026-04-15 04:46 5.03939 39.49080 36056 ft 484 kts 172°
2026-04-15 04:47 4.97292 39.50200 36055 ft 484 kts 172°
2026-04-15 04:47 4.90669 39.51315 36051 ft 482 kts 172°
2026-04-15 04:48 4.84053 39.52428 36050 ft 482 kts 172°
2026-04-15 04:48 4.77444 39.53540 36055 ft 482 kts 172°
2026-04-15 04:49 4.70826 39.54653 36049 ft 482 kts 172°
2026-04-15 04:49 4.64219 39.55764 36051 ft 481 kts 172°
2026-04-15 04:50 4.57614 39.56875 36050 ft 481 kts 172°
2026-04-15 04:50 4.51016 39.57984 36052 ft 481 kts 172°
2026-04-15 04:51 4.44414 39.59094 36053 ft 481 kts 172°
2026-04-15 04:51 4.37860 39.60195 36052 ft 481 kts 172°
2026-04-15 04:52 4.31266 39.61303 36056 ft 480 kts 172°
2026-04-15 04:52 4.24684 39.62409 36055 ft 480 kts 172°
2026-04-15 04:53 4.18096 39.63515 36059 ft 480 kts 172°
2026-04-15 04:53 4.11513 39.64621 36059 ft 480 kts 172°
2026-04-15 04:54 4.04928 39.65727 36058 ft 479 kts 172°
2026-04-15 04:54 3.98362 39.66851 36057 ft 479 kts 171°
2026-04-15 04:55 3.91809 39.68079 36056 ft 479 kts 171°
2026-04-15 04:55 3.85264 39.69335 36053 ft 479 kts 171°
2026-04-15 04:56 3.78712 39.70585 36056 ft 479 kts 171°
2026-04-15 04:56 3.72168 39.71824 36057 ft 479 kts 171°
2026-04-15 04:57 3.65622 39.73061 36057 ft 478 kts 171°
2026-04-15 04:57 3.59082 39.74296 36051 ft 478 kts 171°
2026-04-15 04:58 3.52581 39.75525 36050 ft 478 kts 171°
2026-04-15 04:58 3.46044 39.76759 36042 ft 478 kts 171°
2026-04-15 04:59 3.39514 39.77993 36040 ft 477 kts 171°
2026-04-15 04:59 3.32993 39.79225 36040 ft 477 kts 171°
2026-04-15 05:00 3.26472 39.80456 36039 ft 477 kts 171°
2026-04-15 05:00 3.19940 39.81689 36044 ft 477 kts 171°
2026-04-15 05:01 3.13425 39.82919 36033 ft 477 kts 171°
2026-04-15 05:01 3.06896 39.84151 36035 ft 477 kts 171°
2026-04-15 05:02 3.00385 39.85381 36030 ft 477 kts 171°
2026-04-15 05:02 2.93856 39.86613 36033 ft 477 kts 171°
2026-04-15 05:03 2.87336 39.87843 36028 ft 477 kts 171°
2026-04-15 05:03 2.80819 39.89073 36028 ft 477 kts 171°
2026-04-15 05:04 2.74298 39.90303 36028 ft 477 kts 171°
2026-04-15 05:04 2.67783 39.91533 36026 ft 477 kts 171°
2026-04-15 05:05 2.61262 39.92762 36026 ft 477 kts 171°
2026-04-15 05:05 2.54745 39.93977 36020 ft 477 kts 171°
2026-04-15 05:06 2.48258 39.95136 36020 ft 477 kts 171°
2026-04-15 05:06 2.41730 39.96291 36021 ft 477 kts 171°
2026-04-15 05:07 2.35195 39.97452 36022 ft 477 kts 171°
2026-04-15 05:07 2.28665 39.98615 36018 ft 477 kts 171°
2026-04-15 05:08 2.22128 39.99781 36016 ft 478 kts 171°
2026-04-15 05:08 2.15576 40.00950 36017 ft 478 kts 171°
2026-04-15 05:09 2.09029 40.02117 36015 ft 478 kts 171°
2026-04-15 05:09 2.02487 40.03283 36015 ft 478 kts 171°
2026-04-15 05:10 1.95946 40.04449 36010 ft 478 kts 171°
2026-04-15 05:10 1.89407 40.05615 36010 ft 478 kts 171°
2026-04-15 05:11 1.82862 40.06781 36006 ft 478 kts 171°
2026-04-15 05:11 1.76313 40.07871 36007 ft 477 kts 176°
2026-04-15 05:12 1.69699 40.07801 36003 ft 475 kts 185°
2026-04-15 05:12 1.63109 40.07261 36005 ft 475 kts 186°
2026-04-15 05:13 1.56518 40.06632 36004 ft 476 kts 186°
2026-04-15 05:13 1.49927 40.06011 36001 ft 476 kts 186°
2026-04-15 05:14 1.43376 40.05411 36003 ft 476 kts 186°
2026-04-15 05:14 1.36783 40.04816 36001 ft 476 kts 186°
2026-04-15 05:15 1.30184 40.04221 36002 ft 476 kts 186°
2026-04-15 05:15 1.23591 40.03626 36001 ft 476 kts 186°
2026-04-15 05:16 1.16993 40.03030 35998 ft 476 kts 186°
2026-04-15 05:16 1.10403 40.02434 35998 ft 475 kts 186°
2026-04-15 05:17 1.03814 40.01839 35999 ft 475 kts 186°
2026-04-15 05:17 0.97231 40.01245 35999 ft 475 kts 186°
2026-04-15 05:18 0.90642 40.00653 35996 ft 475 kts 186°
2026-04-15 05:18 0.84057 40.00065 35996 ft 475 kts 186°
2026-04-15 05:19 0.77474 39.99476 35997 ft 475 kts 186°
2026-04-15 05:19 0.70899 39.98888 35997 ft 475 kts 186°
2026-04-15 05:20 0.64318 39.98299 35996 ft 475 kts 186°
2026-04-15 05:20 0.58845 39.97809 35994 ft 475 kts 186°
2026-04-15 05:21 0.52270 39.97222 35996 ft 473 kts 186°
2026-04-15 05:21 0.45718 39.96635 35992 ft 473 kts 186°
2026-04-15 05:22 0.39165 39.96049 35993 ft 473 kts 186°
2026-04-15 05:22 0.32616 39.95463 35993 ft 473 kts 186°
2026-04-15 05:23 0.26061 39.94877 35993 ft 473 kts 186°
2026-04-15 05:23 0.19517 39.94291 35994 ft 472 kts 186°
2026-04-15 05:24 0.12980 39.93707 35994 ft 472 kts 186°
2026-04-15 05:24 0.06469 39.93124 35994 ft 472 kts 186°
2026-04-15 05:25 -0.00079 39.92538 35999 ft 472 kts 186°
2026-04-15 05:25 -0.06617 39.91954 35994 ft 471 kts 186°
2026-04-15 05:26 -0.13194 39.91366 35990 ft 471 kts 186°
2026-04-15 05:26 -0.19678 39.90786 35991 ft 471 kts 186°
2026-04-15 05:27 -0.26212 39.90201 35986 ft 471 kts 186°
2026-04-15 05:27 -0.32742 39.89625 35978 ft 471 kts 186°
2026-04-15 05:28 -0.39289 39.89164 35975 ft 471 kts 185°
2026-04-15 05:28 -0.45834 39.88754 35972 ft 471 kts 185°
2026-04-15 05:29 -0.52378 39.88340 35969 ft 471 kts 185°
2026-04-15 05:29 -0.58921 39.87915 35971 ft 471 kts 185°
2026-04-15 05:30 -0.65469 39.87486 35980 ft 471 kts 185°
2026-04-15 05:30 -0.72013 39.87056 35990 ft 471 kts 185°
2026-04-15 05:31 -0.78561 39.86627 35990 ft 471 kts 185°
2026-04-15 05:31 -0.85106 39.86198 35985 ft 472 kts 185°
2026-04-15 05:32 -0.91664 39.85768 35985 ft 472 kts 185°
2026-04-15 05:32 -0.98216 39.85338 35985 ft 472 kts 185°
2026-04-15 05:33 -1.04775 39.84908 35988 ft 472 kts 185°
2026-04-15 05:33 -1.11330 39.84478 35982 ft 472 kts 185°
2026-04-15 05:34 -1.17848 39.84051 35980 ft 472 kts 185°
2026-04-15 05:34 -1.24398 39.83622 35980 ft 472 kts 185°
2026-04-15 05:35 -1.30946 39.83192 35977 ft 471 kts 185°
2026-04-15 05:35 -1.37488 39.82763 35977 ft 471 kts 185°
2026-04-15 05:36 -1.44031 39.82334 35974 ft 471 kts 185°
2026-04-15 05:36 -1.50571 39.81905 35974 ft 471 kts 185°
2026-04-15 05:37 -1.57099 39.81477 35972 ft 469 kts 185°
2026-04-15 05:37 -1.63614 39.81049 35971 ft 469 kts 185°
2026-04-15 05:38 -1.70134 39.80622 35969 ft 469 kts 185°
2026-04-15 05:38 -1.76651 39.80194 35962 ft 470 kts 185°
2026-04-15 05:39 -1.83171 39.79749 35960 ft 469 kts 185°
2026-04-15 05:39 -1.89675 39.79295 35958 ft 469 kts 185°
2026-04-15 05:40 -1.96184 39.78842 35958 ft 469 kts 185°
2026-04-15 05:40 -2.02688 39.78389 35956 ft 469 kts 185°
2026-04-15 05:41 -2.09154 39.77939 35957 ft 469 kts 185°
2026-04-15 05:41 -2.15653 39.77486 35955 ft 468 kts 185°
2026-04-15 05:42 -2.22154 39.77033 35957 ft 468 kts 185°
2026-04-15 05:42 -2.28651 39.76581 35954 ft 468 kts 185°
2026-04-15 05:43 -2.35153 39.76128 35956 ft 468 kts 185°
2026-04-15 05:43 -2.41646 39.75676 35952 ft 468 kts 185°
2026-04-15 05:44 -2.48139 39.75224 35949 ft 467 kts 185°
2026-04-15 05:44 -2.54625 39.74772 35952 ft 467 kts 185°
2026-04-15 05:45 -2.61123 39.74335 35948 ft 468 kts 182°
2026-04-15 05:45 -2.67623 39.74730 35946 ft 469 kts 176°
2026-04-15 05:46 -2.74117 39.75351 35942 ft 469 kts 176°
2026-04-15 05:46 -2.80605 39.75964 35945 ft 468 kts 176°
2026-04-15 05:47 -2.87093 39.76572 35939 ft 469 kts 176°
2026-04-15 05:47 -2.93593 39.77178 35939 ft 468 kts 176°
2026-04-15 05:48 -3.00029 39.77777 35934 ft 468 kts 176°
2026-04-15 05:48 -3.06522 39.78382 35933 ft 468 kts 176°
2026-04-15 05:49 -3.12997 39.78986 35936 ft 468 kts 176°
2026-04-15 05:49 -3.19488 39.79590 35933 ft 468 kts 176°
2026-04-15 05:50 -3.25964 39.80194 35935 ft 468 kts 176°
2026-04-15 05:51 -3.35687 39.81100 35927 ft 466 kts 176°
2026-04-15 05:51 -3.38892 39.81399 35714 ft 459 kts 176°
2026-04-15 05:51 -3.42056 39.81694 35255 ft 456 kts 176°
2026-04-15 05:51 -3.45214 39.81989 34815 ft 454 kts 175°
2026-04-15 05:52 -3.48332 39.82354 34574 ft 446 kts 173°
2026-04-15 05:52 -3.51362 39.82791 34491 ft 435 kts 173°
2026-04-15 05:52 -3.54349 39.83252 33889 ft 438 kts 172°
2026-04-15 05:52 -3.57375 39.83751 33277 ft 439 kts 171°
2026-04-15 05:53 -3.60373 39.84287 32706 ft 438 kts 171°
2026-04-15 05:53 -3.63390 39.84864 32028 ft 442 kts 170°
2026-04-15 05:53 -3.66382 39.85488 31467 ft 441 kts 169°
2026-04-15 05:53 -3.69398 39.86167 30695 ft 442 kts 168°
2026-04-15 05:54 -3.72343 39.86887 30110 ft 434 kts 167°
2026-04-15 05:54 -3.75289 39.87632 29159 ft 440 kts 167°
2026-04-15 05:54 -3.78283 39.88426 28107 ft 450 kts 166°
2026-04-15 05:54 -3.81324 39.89314 27022 ft 460 kts 164°
2026-04-15 05:55 -3.84382 39.90338 25985 ft 469 kts 161°
2026-04-15 05:55 -3.87429 39.91536 25180 ft 472 kts 158°
2026-04-15 05:55 -3.90408 39.92914 24574 ft 469 kts 154°
2026-04-15 05:55 -3.93288 39.94444 23990 ft 467 kts 151°
2026-04-15 05:56 -3.96065 39.96107 23325 ft 465 kts 148°
2026-04-15 05:56 -3.98744 39.97899 22775 ft 460 kts 146°
2026-04-15 05:56 -4.01319 39.99785 22136 ft 455 kts 143°
2026-04-15 05:56 -4.03787 40.01739 21519 ft 451 kts 141°
2026-04-15 05:57 -4.06177 40.03752 20969 ft 446 kts 139°
2026-04-15 05:57 -4.08481 40.05788 20406 ft 440 kts 138°
2026-04-15 05:57 -4.10729 40.07838 19932 ft 433 kts 137°
2026-04-15 05:57 -4.12910 40.09849 19379 ft 429 kts 136°
2026-04-15 05:58 -4.15120 40.11883 18739 ft 426 kts 136°
2026-04-15 05:58 -4.17277 40.13841 18376 ft 417 kts 137°
2026-04-15 05:58 -4.19436 40.15728 18403 ft 398 kts 139°
2026-04-15 05:58 -4.21551 40.17400 18421 ft 375 kts 142°
2026-04-15 05:59 -4.23663 40.18776 18437 ft 350 kts 149°
2026-04-15 05:59 -4.25794 40.19759 18446 ft 327 kts 160°
2026-04-15 05:59 -4.27940 40.20269 18455 ft 308 kts 170°
2026-04-15 05:59 -4.30056 40.20367 18494 ft 315 kts 181°
2026-04-15 06:00 -4.32227 40.19902 18605 ft 325 kts 201°
2026-04-15 06:00 -4.34123 40.18653 18645 ft 331 kts 225°
2026-04-15 06:00 -4.35330 40.16661 18646 ft 336 kts 251°
2026-04-15 06:00 -4.35544 40.14373 18649 ft 336 kts 278°
2026-04-15 06:01 -4.34758 40.12185 18652 ft 336 kts 304°
2026-04-15 06:01 -4.33149 40.10534 18650 ft 332 kts 328°
2026-04-15 06:01 -4.31086 40.09544 18489 ft 328 kts 342°
2026-04-15 06:01 -4.28907 40.08836 18222 ft 332 kts 345°
2026-04-15 06:02 -4.26669 40.08148 17773 ft 342 kts 344°
2026-04-15 06:02 -4.24365 40.07426 16942 ft 350 kts 344°
2026-04-15 06:02 -4.22025 40.06676 15972 ft 357 kts 343°
2026-04-15 06:02 -4.19607 40.05890 15498 ft 370 kts 344°
2026-04-15 06:03 -4.17148 40.05085 14568 ft 373 kts 343°
2026-04-15 06:03 -4.14692 40.04277 13884 ft 367 kts 343°
2026-04-15 06:03 -4.12277 40.03482 13534 ft 370 kts 344°
2026-04-15 06:03 -4.09829 40.02678 12956 ft 369 kts 343°
2026-04-15 06:04 -4.07417 40.01884 12552 ft 365 kts 343°
2026-04-15 06:04 -4.04982 40.01085 12235 ft 369 kts 343°
2026-04-15 06:04 -4.02542 40.00282 11736 ft 368 kts 344°
2026-04-15 06:04 -4.00167 39.99477 11606 ft 353 kts 340°
2026-04-15 06:05 -3.98031 39.98385 11416 ft 336 kts 327°
2026-04-15 06:05 -3.96243 39.96981 11151 ft 319 kts 321°
2026-04-15 06:05 -3.94617 39.95517 10740 ft 310 kts 318°
2026-04-15 06:05 -3.93052 39.94054 10203 ft 306 kts 318°
2026-04-15 06:06 -3.91506 39.92590 9570 ft 306 kts 317°
2026-04-15 06:06 -3.89977 39.91134 9049 ft 300 kts 317°
2026-04-15 06:06 -3.88469 39.89694 8425 ft 300 kts 316°
2026-04-15 06:06 -3.86972 39.88262 7872 ft 296 kts 316°
2026-04-15 06:07 -3.85509 39.86862 7406 ft 291 kts 316°
2026-04-15 06:07 -3.84061 39.85475 7092 ft 280 kts 316°
2026-04-15 06:07 -3.82697 39.84168 6795 ft 270 kts 316°
2026-04-15 06:07 -3.81360 39.82889 6496 ft 262 kts 316°
2026-04-15 06:08 -3.80046 39.81630 6223 ft 252 kts 316°
2026-04-15 06:08 -3.78829 39.80465 6020 ft 241 kts 316°
2026-04-15 06:08 -3.77618 39.79305 5598 ft 240 kts 315°
2026-04-15 06:08 -3.76521 39.78072 5271 ft 234 kts 300°
2026-04-15 06:09 -3.76061 39.77103 5145 ft 222 kts 282°
2026-04-15 06:09 -3.76023 39.75661 5066 ft 197 kts 251°
2026-04-15 06:09 -3.77032 39.74357 4921 ft 175 kts 214°
2026-04-15 06:09 -3.77713 39.73903 4874 ft 174 kts 210°
2026-04-15 06:10 -3.78749 39.73287 4790 ft 172 kts 207°
2026-04-15 06:10 -3.79779 39.72700 4596 ft 169 kts 206°
2026-04-15 06:10 -3.80809 39.72122 4393 ft 171 kts 207°
2026-04-15 06:10 -3.81847 39.71539 4182 ft 170 kts 208°
2026-04-15 06:11 -3.82867 39.70964 4009 ft 169 kts 207°
2026-04-15 06:11 -3.83905 39.70379 3806 ft 171 kts 208°
2026-04-15 06:11 -3.84931 39.69799 3628 ft 169 kts 207°
2026-04-15 06:11 -3.85947 39.69225 3415 ft 166 kts 207°
2026-04-15 06:12 -3.86943 39.68661 3240 ft 163 kts 207°
2026-04-15 06:12 -3.87922 39.68112 3056 ft 160 kts 207°
2026-04-15 06:12 -3.88934 39.67560 2826 ft 175 kts 207°
2026-04-15 06:12 -3.90059 39.66939 2304 ft 190 kts 209°
2026-04-15 06:13 -3.91195 39.66304 2159 ft 181 kts 207°
2026-04-15 06:13 -3.92231 39.65723 2168 ft 159 kts 208°
2026-04-15 06:13 -3.93126 39.65221 2121 ft 139 kts 208°
2026-04-15 06:13 -3.93953 39.64759 1804 ft 135 kts 208°
2026-04-15 06:14 -3.94764 39.64307 1629 ft 135 kts 208°
2026-04-15 06:14 -3.95591 39.63845 1453 ft 133 kts 208°
2026-04-15 06:14 -3.96394 39.63397 1275 ft 131 kts 208°
2026-04-15 06:14 -3.97184 39.62957 1116 ft 129 kts 209°
2026-04-15 06:15 -3.97970 39.62516 901 ft 134 kts 209°
2026-04-15 06:15 -3.98803 39.62052 760 ft 140 kts 208°
2026-04-15 06:15 -3.99642 39.61584 529 ft 138 kts 210°
2026-04-15 06:15 -4.00473 39.61119 366 ft 134 kts 211°
2026-04-15 06:16 -4.01278 39.60669 242 ft 132 kts 210°
2026-04-15 06:16 -4.02034 39.60240 215 ft 101 kts 209°
2026-04-15 06:16 -4.02442 39.60010 217 ft 51 kts 210°
2026-04-15 06:16 -4.02713 39.59854 216 ft 41 kts 210°
2026-04-15 06:17 -4.02935 39.59737 219 ft 32 kts 210°
2026-04-15 06:17 -4.03131 39.59626 217 ft 33 kts 210°
2026-04-15 06:17 -4.03329 39.59518 218 ft 32 kts 208°
2026-04-15 06:17 -4.03526 39.59455 219 ft 29 kts 159°
2026-04-15 06:18 -4.03664 39.59550 218 ft 8 kts 95°
2026-04-15 06:18 -4.03625 39.59590 220 ft 9 kts 32°
2026-04-15 06:18 -4.03556 39.59631 214 ft 14 kts 29°
2026-04-15 06:18 -4.03468 39.59694 219 ft 17 kts 55°
2026-04-15 06:19 -4.03452 39.59819 218 ft 20 kts 89°
2026-04-15 06:19 -4.03388 39.59945 218 ft 22 kts 43°
2026-04-15 06:19 -4.03283 39.60062 220 ft 23 kts 34°
2026-04-15 06:19 -4.03190 39.60158 213 ft 10 kts 89°
2026-04-15 06:20 -4.03198 39.60183 216 ft 0 kts 115°
2026-04-15 06:20 -4.03203 39.60192 211 ft 0 kts 117°
2026-04-15 06:20 -4.03207 39.60201 214 ft 0 kts 117°
2026-04-15 06:21 -4.03208 39.60203 214 ft 0 kts 117°